TimePDT,TemperatureF,Dew PointF,Humidity,Sea Level PressureIn,VisibilityMPH,Wind Direction,Wind SpeedMPH,Gust SpeedMPH,PrecipitationIn,Events,Conditions,WindDirDegrees,DateUTC
12:53 AM,55.9,50.0,80,30.17,10.0,NW,4.6,-,N/A,,Mostly Cloudy,320,2013-05-09 07:53:00
1:53 AM,55.0,48.9,80,30.17,10.0,Calm,Calm,-,N/A,,Mostly Cloudy,0,2013-05-09 08:53:00
2:53 AM,53.1,48.0,83,30.18,10.0,NNW,4.6,-,N/A,,Scattered Clouds,340,2013-05-09 09:53:00
3:53 AM,52.0,48.0,86,30.19,10.0,WNW,6.9,-,N/A,,Partly Cloudy,300,2013-05-09 10:53:00
4:11 AM,51.8,48.2,88,30.19,10.0,NW,6.9,-,N/A,,Scattered Clouds,320,2013-05-09 11:11:00
4:21 AM,51.8,48.2,88,30.19,10.0,NNW,8.1,-,N/A,,Overcast,330,2013-05-09 11:21:00
4:53 AM,52.0,48.9,89,30.19,10.0,Calm,Calm,-,N/A,,Overcast,0,2013-05-09 11:53:00
5:53 AM,52.0,48.9,89,30.19,10.0,NNW,3.5,-,N/A,,Overcast,330,2013-05-09 12:53:00
6:53 AM,53.1,48.9,86,30.20,9.0,NW,6.9,-,N/A,,Overcast,310,2013-05-09 13:53:00
7:53 AM,53.1,48.9,86,30.21,10.0,NNW,3.5,-,N/A,,Overcast,330,2013-05-09 14:53:00
8:53 AM,54.0,48.9,83,30.21,9.0,Calm,Calm,-,N/A,,Overcast,0,2013-05-09 15:53:00
9:53 AM,53.6,48.2,82,30.20,10.0,WNW,3.5,-,N/A,,Overcast,300,2013-05-09 16:53:00
10:27 AM,55.4,48.2,77,30.20,10.0,West,4.6,-,N/A,,Overcast,280,2013-05-09 17:27:00
10:53 AM,55.9,50.0,80,30.20,10.0,West,3.5,-,N/A,,Overcast,260,2013-05-09 17:53:00
11:53 AM,61.0,51.1,70,30.19,10.0,Calm,Calm,-,N/A,,Scattered Clouds,0,2013-05-09 18:53:00
12:53 PM,64.0,51.1,63,30.18,10.0,Calm,Calm,-,N/A,,Clear,0,2013-05-09 19:53:00
1:53 PM,69.1,52.0,54,30.16,10.0,Variable,3.5,-,N/A,,Partly Cloudy,0,2013-05-09 20:53:00
2:53 PM,72.0,51.1,48,30.14,10.0,Variable,4.6,-,N/A,,Partly Cloudy,0,2013-05-09 21:53:00
3:53 PM,77.0,46.9,34,30.10,10.0,North,9.2,-,N/A,,Partly Cloudy,350,2013-05-09 22:53:00
4:53 PM,78.1,50.0,37,30.09,10.0,North,6.9,-,N/A,,Partly Cloudy,350,2013-05-09 23:53:00
5:53 PM,78.1,51.1,39,30.07,10.0,NNW,6.9,-,N/A,,Partly Cloudy,340,2013-05-10 00:53:00
6:53 PM,77.0,51.1,40,30.07,10.0,NNW,5.8,-,N/A,,Partly Cloudy,340,2013-05-10 01:53:00
7:53 PM,73.9,52.0,46,30.08,10.0,NW,10.4,-,N/A,,Partly Cloudy,310,2013-05-10 02:53:00
8:53 PM,71.1,52.0,51,30.09,10.0,NW,3.5,-,N/A,,Partly Cloudy,320,2013-05-10 03:53:00
9:53 PM,68.0,52.0,56,30.11,10.0,NNW,3.5,-,N/A,,Clear,340,2013-05-10 04:53:00
10:53 PM,64.9,51.1,61,30.12,10.0,NNW,6.9,-,N/A,,Clear,330,2013-05-10 05:53:00
11:53 PM,63.0,51.1,65,30.13,10.0,Calm,Calm,-,N/A,,Clear,0,2013-05-10 06:53:00